This demonstration page uses our WeatherBlox Daily Observations layout. Learn more.

Left ArrowRight Arrow

40.92501, -98.34201

Hourly Observations for May 3, 2020

Temp ( °F °C ) Dew Point ( °F °C ) Humidity (%) Winds ( mph kmh ) Pressure ( in mb ) Visibility ( mi km ) Precip ( " mm )
12:53 am 00:53 Cloudy 57 13.9 44 6.7 62 62 NW 9 15 30.09 1019 10 16 0.00 0.00
1:53 am 01:53 Cloudy 56 13.3 45 7.2 67 67 NNW 7 11 30.06 1018 10 16 0.00 0.00
2:53 am 02:53 Mostly Cloudy 54 12.2 44 6.7 69 69 NW 7 11 30.05 1018 10 16 0.00 0.00
3:53 am 03:53 Cloudy 54 12.2 44 6.7 69 69 W 5 7 30.05 1018 10 16 0.00 0.00
4:53 am 04:53 Cloudy 54 12.2 45 7.2 72 72 WSW 5 7 30.05 1018 10 16 0.00 0.00
5:53 am 05:53 Cloudy 55 12.8 45 7.2 69 69 NNW 6 9 30.05 1018 10 16 0.00 0.00
6:53 am 06:53 Cloudy 54 12.2 46 7.8 75 75 NW 5 7 30.06 1018 10 16 0.00 0.00
7:53 am 07:53 Cloudy 56 13.3 46 7.8 70 70 N 7 11 30.08 1019 10 16 0.00 0.00
8:53 am 08:53 Mostly Cloudy 58 14.4 43 6.1 58 58 NNE 7 11 30.07 1018 10 16 0.00 0.00
9:53 am 09:53 Mostly Cloudy 64 17.8 40 4.4 41 41 ENE 6 9 30.06 1018 10 16 0.00 0.00
10:53 am 10:53 Sunny 69 20.6 38 3.3 32 32 ESE 7 11 30.06 1018 10 16 0.00 0.00
11:53 am 11:53 Sunny 71 21.7 35 1.7 27 27 E 6 9 30.04 1017 10 16 0.00 0.00
12:53 pm 12:53 Sunny 74 23.3 35 1.7 24 24 S 8 13 30.02 1017 10 16 0.00 0.00
1:48 pm 13:48 Sunny 75 24 36 2 24 24 ESE 8 13 29.92 1013 10 16 0.00 0.00
1:53 pm 13:53 Sunny 74 23.3 34 1.1 23 23 E 5 7 30.00 1016 10 16 0.00 0.00
2:39 pm 14:39 Sunny 76 24.4 36 2.2 23 23 SSE 7 11 29.91 1013 10 16 0.00 0.00
2:53 pm 14:53 Sunny 76 24.4 36 2.2 23 23 SE 10 17 29.98 1015 10 16 0.00 0.00
3:53 pm 15:53 Sunny 77 25 37 2.8 24 24 SSE 13 20 29.96 1015 10 16 0.00 0.00
4:53 pm 16:53 Partly Cloudy 78 25.6 37 2.8 23 23 ESE 9 15 29.93 1014 10 16 0.00 0.00
5:53 pm 17:53 Mostly Sunny 78 25.6 38 3.3 24 24 ESE 10 17 29.93 1013 10 16 0.00 0.00
6:53 pm 18:53 Sunny 76 24.4 37 2.8 24 24 ESE 10 17 29.93 1014 10 16 0.00 0.00
7:53 pm 19:53 Sunny 73 22.8 39 3.9 29 29 ESE 6 9 29.94 1014 10 16 0.00 0.00
8:53 pm 20:53 Clear 70 21.1 38 3.3 31 31 SE 8 13 29.95 1014 10 16 0.00 0.00
9:53 pm 21:53 Clear 67 19.4 38 3.3 35 35 SE 8 13 29.97 1015 10 16 0.00 0.00
10:53 pm 22:53 Clear 66 18.9 38 3.3 36 36 ESE 10 17 29.95 1014 10 16 0.00 0.00
11:53 pm 23:53 Clear 65 18.3 38 3.3 37 37 SE 14 22 29.95 1014 10 16 0.00 0.00

Powered by AerisWeather